GW0991 Weather Reports


time (UTC)temp
C
wind
direction
speed
KPH
gust
KPH
rain 1hr
cm
rain 24hr
cm
rain mn
cm
humidity
%
barometer
mb
20260504081628 12 177 6.4 8.0 0.00 0.00 0.00 85 1008.0
20260504081123 11 210 4.8 8.0 0.00 0.00 0.00 85 1008.3
20260504080620 11 194 6.4 8.0 0.00 0.00 0.00 86 1008.4
20260504080117 11 196 6.4 8.0 0.00 0.00 0.00 86 1008.2
20260504050433 13 187 4.8 4.8 0.00 0.00 0.00 76 1009.9
20260504045930 13 187 3.2 8.0 0.00 0.00 0.00 75 1009.8
20260504045426 13 205 3.2 4.8 0.00 0.00 0.00 76 1010.0
20260504044922 13 209 1.6 3.2 0.00 0.00 0.00 75 1009.9
20260504044420 13 194 3.2 4.8 0.00 0.00 0.00 74 1010.0
20260504043917 13 204 6.4 8.0 0.00 0.00 0.00 75 1009.9
20260504043414 12 202 3.2 4.8 0.00 0.00 0.00 76 1010.0
20260504042912 12 187 1.6 3.2 0.00 0.00 0.00 75 1010.0
20260504042408 13 187 1.6 3.2 0.00 0.00 0.00 74 1010.1
20260504041904 12 184 1.6 3.2 0.00 0.00 0.00 76 1010.0
20260504041401 12 194 3.2 3.2 0.00 0.00 0.00 78 1010.0
20260504040856 12 177 0.0 0.0 0.00 0.00 0.00 76 1009.8
20260504040354 12 188 0.0 1.6 0.00 0.00 0.00 75 1009.9
20260504035850 13 186 0.0 0.0 0.00 0.00 0.00 74 1009.8
20260504035348 14 190 1.6 1.6 0.00 0.00 0.00 71 1009.7
20260504034844 14 191 1.6 1.6 0.00 0.00 0.00 70 1009.9
20260504034342 14 202 1.6 3.2 0.00 0.00 0.00 69 1009.9
20260504033839 15 198 0.0 1.6 0.00 0.00 0.00 68 1010.0
20260504033337 15 196 1.6 3.2 0.00 0.00 0.00 68 1010.3
20260504032833 15 193 3.2 3.2 0.00 0.00 0.00 67 1010.2
20260504032330 15 214 3.2 4.8 0.00 0.00 0.00 66 1010.3
20260504031827 15 203 3.2 4.8 0.00 0.00 0.00 66 1010.2
20260504031324 15 217 3.2 3.2 0.00 0.00 0.00 68 1010.2
20260504030820 15 196 0.0 1.6 0.00 0.00 0.00 68 1010.2
20260504030318 15 203 0.0 1.6 0.00 0.00 0.00 67 1010.1
20260504025814 15 203 0.0 1.6 0.00 0.00 0.00 67 1010.2
20260504025311 15 205 3.2 3.2 0.00 0.00 0.00 66 1010.2
20260504024808 15 200 1.6 1.6 0.00 0.00 0.00 66 1010.2
20260504024304 15 205 0.0 0.0 0.00 0.00 0.00 68 1010.3
20260504023801 14 191 1.6 1.6 0.00 0.00 0.00 70 1010.1
20260504023257 14 199 0.0 0.0 0.00 0.00 0.00 70 1010.2
20260504022753 15 200 0.0 1.6 0.00 0.00 0.00 70 1010.1
20260504022250 15 200 0.0 0.0 0.00 0.00 0.00 68 1010.0
20260504021747 15 201 0.0 1.6 0.00 0.00 0.00 67 1010.1
20260504021245 15 204 1.6 1.6 0.00 0.00 0.00 66 1010.2
20260504020741 16 205 1.6 3.2 0.00 0.00 0.00 66 1010.1
20260504020237 16 208 3.2 3.2 0.00 0.00 0.00 65 1010.0
20260504015734 16 209 3.2 4.8 0.00 0.00 0.00 64 1010.2
20260504015230 16 204 3.2 4.8 0.00 0.00 0.00 64 1010.1
20260504014726 16 203 4.8 8.0 0.00 0.00 0.00 64 1009.8
20260504014223 16 204 1.6 4.8 0.00 0.00 0.00 63 1010.0
20260504013721 16 202 1.6 3.2 0.00 0.00 0.00 63 1010.2
20260504013218 16 193 0.0 1.6 0.00 0.00 0.00 63 1009.7
20260504012714 16 199 0.0 1.6 0.00 0.00 0.00 63 1009.8
20260504012213 16 198 3.2 3.2 0.00 0.00 0.00 62 1009.7
20260504011709 17 196 1.6 3.2 0.00 0.00 0.00 62 1010.1
20260504011206 17 231 3.2 3.2 0.00 0.00 0.00 61 1009.7
20260504010702 17 204 0.0 1.6 0.00 0.00 0.00 62 1009.9
20260504010157 17 210 1.6 1.6 0.00 0.00 0.00 62 1009.7
20260504005654 17 223 3.2 3.2 0.00 0.00 0.00 60 1009.8
20260504005151 17 203 0.0 1.6 0.00 0.00 0.00 60 1009.7
20260504004649 17 218 1.6 3.2 0.00 0.00 0.00 60 1009.6
20260504004146 17 209 3.2 3.2 0.00 0.00 0.00 59 1009.5
20260504003642 18 198 1.6 3.2 0.00 0.00 0.00 58 1009.5
20260504003139 18 263 3.2 8.0 0.00 0.00 0.00 57 1009.7
20260504002636 18 214 1.6 8.0 0.00 0.00 0.00 56 1009.4
20260504002134 19 236 6.4 11.3 0.00 0.00 0.00 55 1009.6
20260504001631 19 235 9.7 12.9 0.00 0.00 0.00 54 1009.6
20260504001127 19 218 0.0 4.8 0.00 0.00 0.00 54 1009.6
20260504000625 20 208 1.6 4.8 0.00 0.00 0.00 54 1009.8
20260504000122 19 220 1.6 8.0 0.00 0.00 0.00 53 1009.5
20260503235620 19 215 1.6 4.8 0.00 0.00 0.00 54 1009.7
20260503235116 19 245 1.6 3.2 0.00 0.00 0.00 53 1009.5
20260503234614 19 223 3.2 3.2 0.00 0.00 0.00 53 1009.7
20260503234112 19 210 4.8 8.0 0.00 0.00 0.00 53 1009.5
20260503233609 19 270 4.8 8.0 0.00 0.00 0.00 52 1009.5
20260503233104 19 213 3.2 4.8 0.00 0.00 0.00 52 1009.9
20260503232601 19 218 3.2 11.3 0.00 0.00 0.00 52 1009.8
20260503232059 19 229 3.2 8.0 0.00 0.00 0.00 52 1009.8
20260503231556 20 202 3.2 8.0 0.00 0.00 0.00 51 1009.5
20260503231053 20 216 3.2 8.0 0.00 0.00 0.00 49 1009.7
20260503230549 19 219 4.8 4.8 0.00 0.00 0.00 49 1009.7
20260503230047 19 238 4.8 8.0 0.00 0.00 0.00 50 1009.8
20260503225544 19 238 4.8 14.5 0.00 0.00 0.00 51 1009.8
20260503225039 19 210 8.0 12.9 0.00 0.00 0.00 50 1009.8
20260503224537 18 189 8.0 14.5 0.00 0.00 0.00 50 1010.0
20260503224035 19 217 4.8 12.9 0.00 0.00 0.00 51 1010.1
20260503223533 18 238 8.0 11.3 0.00 0.00 0.00 50 1010.0
20260503223028 18 203 4.8 8.0 0.00 0.00 0.00 51 1010.2
20260503222526 18 221 9.7 12.9 0.00 0.00 0.00 50 1010.0
20260503222024 19 203 4.8 14.5 0.00 0.00 0.00 50 1010.3
20260503221522 19 216 1.6 12.9 0.00 0.00 0.00 50 1010.4
20260503221019 19 189 4.8 17.7 0.00 0.00 0.00 50 1010.1
20260503220515 19 215 8.0 14.5 0.00 0.00 0.00 50 1010.3
20260503220012 19 223 4.8 11.3 0.00 0.00 0.00 50 1010.2
20260503215509 18 219 9.7 14.5 0.00 0.00 0.00 50 1010.3
20260503215006 18 238 8.0 22.5 0.00 0.00 0.00 50 1010.2
20260503214504 19 196 4.8 16.1 0.00 0.00 0.00 50 1010.1
20260503214001 19 233 8.0 22.5 0.00 0.00 0.00 50 1010.3
20260503213459 18 199 17.7 20.9 0.00 0.00 0.00 50 1010.6
20260503212955 18 182 11.3 20.9 0.00 0.00 0.00 50 1010.6
20260503212453 18 241 6.4 14.5 0.00 0.00 0.00 51 1010.5
20260503211950 18 233 9.7 27.4 0.00 0.00 0.00 51 1010.5
20260503211447 18 215 12.9 24.1 0.00 0.00 0.00 51 1010.8
20260503210942 18 218 4.8 20.9 0.00 0.00 0.00 51 1010.5
20260503210439 18 212 6.4 27.4 0.00 0.00 0.00 52 1010.4
20260503205934 18 223 6.4 12.9 0.00 0.00 0.00 53 1010.1
20260503205431 18 221 4.8 9.7 0.00 0.00 0.00 53 1010.5
20260503204927 18 196 9.7 20.9 0.00 0.00 0.00 51 1010.4
20260503204425 17 209 8.0 24.1 0.00 0.00 0.00 52 1010.8
20260503203922 18 234 19.3 27.4 0.00 0.00 0.00 50 1011.1
20260503203419 18 192 17.7 25.7 0.00 0.00 0.00 51 1011.0
20260503202916 18 227 17.7 22.5 0.00 0.00 0.00 50 1010.9
20260503202414 18 223 12.9 32.2 0.00 0.00 0.00 51 1010.9
20260503201913 18 207 14.5 17.7 0.00 0.00 0.00 52 1011.0
20260503201409 17 214 8.0 29.0 0.00 0.00 0.00 52 1011.2
20260503200907 18 198 12.9 17.7 0.00 0.00 0.00 50 1011.4
20260503200403 18 214 11.3 33.8 0.00 0.00 0.00 49 1011.2
20260503195900 18 196 22.5 35.4 0.00 0.00 0.00 48 1011.3
20260503195356 18 189 14.5 25.7 0.00 0.00 0.00 49 1011.1
20260503194853 18 16 12.9 24.1 0.00 0.00 0.00 49 1011.7
20260503194349 18 193 22.5 38.6 0.00 0.00 0.00 48 1011.8
20260503193846 18 214 12.9 35.4 0.00 0.00 0.00 48 1011.4
20260503193341 18 199 19.3 33.8 0.00 0.00 0.00 47 1011.7
20260503192837 18 220 11.3 29.0 0.00 0.00 0.00 47 1011.8
20260503192333 18 189 11.3 33.8 0.00 0.00 0.00 47 1011.8
20260503191830 18 237 14.5 43.5 0.00 0.00 0.00 48 1012.1
20260503191327 18 178 17.7 22.5 0.00 0.00 0.00 48 1011.7
20260503190824 18 162 14.5 29.0 0.00 0.00 0.00 50 1011.7
20260503190321 18 230 22.5 38.6 0.00 0.00 0.00 48 1011.7
20260503185818 18 204 16.1 24.1 0.00 0.00 0.00 51 1011.9
20260503185313 17 234 16.1 25.7 0.00 0.00 0.00 51 1012.2
20260503184808 17 201 11.3 22.5 0.00 0.00 0.00 52 1012.0
20260503184305 17 197 11.3 27.4 0.00 0.00 0.00 51 1012.2
20260503183800 17 203 16.1 32.2 0.00 0.00 0.00 51 1012.4
20260503183258 17 165 16.1 22.5 0.00 0.00 0.00 50 1012.5
20260503182755 17 187 24.1 35.4 0.00 0.00 0.00 50 1013.2
20260503182254 17 196 11.3 24.1 0.00 0.00 0.00 51 1013.1
20260503181750 16 172 4.8 29.0 0.00 0.00 0.00 54 1013.3
20260503181248 16 236 14.5 25.7 0.00 0.00 0.00 53 1013.7
20260503180744 16 210 6.4 20.9 0.00 0.00 0.00 55 1013.8
20260503180242 16 205 12.9 25.7 0.00 0.00 0.00 54 1014.1
20260503175738 16 212 4.8 27.4 0.00 0.00 0.00 54 1014.2
20260503175237 16 213 11.3 20.9 0.00 0.00 0.00 53 1014.4
20260503174732 16 265 9.7 24.1 0.00 0.00 0.00 53 1014.7
20260503174230 16 134 11.3 20.9 0.00 0.00 0.00 52 1014.6
20260503173725 16 211 11.3 17.7 0.00 0.00 0.00 54 1014.6
20260503173221 16 217 9.7 22.5 0.00 0.00 0.00 54 1015.1
20260503172718 16 213 17.7 24.1 0.00 0.00 0.00 53 1015.1
20260503172215 15 175 14.5 17.7 0.00 0.00 0.00 53 1015.4
20260503171711 15 228 6.4 11.3 0.00 0.00 0.00 53 1015.2
20260503171209 15 252 22.5 32.2 0.00 0.00 0.00 52 1015.3
20260503170706 15 215 4.8 11.3 0.00 0.00 0.00 53 1015.2
20260503170203 16 221 14.5 22.5 0.00 0.00 0.00 51 1014.9
20260503160124 15 202 6.4 29.0 0.00 0.00 0.00 56 1016.3
20260503150554 14 192 9.7 22.5 0.00 0.00 0.00 58 1017.1
20260503130944 10 219 4.8 14.5 0.00 0.00 0.00 72 1018.2
20260503130442 10 229 4.8 12.9 0.00 0.00 0.00 72 1018.0
20260503110332 6 205 8.0 9.7 0.00 0.00 0.00 77 1018.0
20260503100258 6 192 6.4 9.7 0.00 0.00 0.00 75 1018.2